Regional Weather Roundup
Issued by NWS Kansas City/Pleasant Hill, MO

Home | Current Version | Previous Version | Text Only | Print | Product List | Glossary On
Versions: 1 2 3 4 5 6 7 8 9 10 11 12 13 14 15 16 17 18 19 20 21 22 23 24 25 26 27 28 29 30 31 32 33 34 35 36 37 38 39 40 41 42 43 44 45 46 47 48 49 50
000
ASUS43 KEAX 231010
RWREAX

WEATHER ROUNDUP FOR EASTERN KANSAS AND NORTHWEST MISSOURI
NATIONAL WEATHER SERVICE KANSAS CITY/PLEASANT HILL MO
500 AM CDT MON APR 23 2018

KSZ040-057-103>105-MOZ028-029-037-043-231100-
...KANSAS CITY METROPOLITAN AREA...

CITY           SKY/WX    TMP DP  RH WIND       PRES   REMARKS
K.C. INTL      CLOUDY    55  29  36 NE7       30.10R
K.C. DOWNTOWN  CLOUDY    59  28  30 NE6       30.08R
LEES SUMMIT    CLOUDY    55  30  38 NE9       30.09R
OLATHE - IXD   CLOUDY    55  31  39 N8        30.09R
OLATHE - OJC   CLOUDY    55  29  36 NE9       30.08R
LAWRENCE       CLOUDY    55  31  39 NE10      30.09S

$$

MOZ001>008-011>017-020>025-030>033-038>040-044>046-053-054-231100-
...NORTHERN AND CENTRAL MISSOURI...

CITY           SKY/WX    TMP DP  RH WIND       PRES   REMARKS
ST. JOSEPH     CLOUDY    51  31  46 N9        30.12S
MOSBY          CLOUDY    55  28  35 N3        30.10R
WARRENSBURG    CLOUDY    52  32  46 N8        30.07R
WHITEMAN AFB   CLOUDY    53  34  49 N8        30.01S
CLINTON        CLOUDY    55  45  67 NE9       30.04S
SEDALIA        CLOUDY    56  46  69 N9        30.05R
WARSAW         NOT AVBL
CHILLICOTHE      N/A     53  32  44 N5        30.11R
KIRKSVILLE     CLOUDY    51  33  50 NE9       30.11S

$$

MOZ041-047>049-056>058-063>065-088>090-097-231100-
...EASTERN AND SOUTHERN MISSOURI...

CITY           SKY/WX    TMP DP  RH WIND       PRES   REMARKS
ST. LOUIS INTL LGT RAIN  54  40  59 NE12      29.99F
SPIRIT OF STL  CLOUDY    54  43  66 NE7       29.98F
COLUMBIA       CLOUDY    56  38  50 NE15      30.02S
JEFFERSON CITY CLOUDY    58  42  55 N5        30.01R
ROLLA          CLOUDY    52  43  71 NE13      29.98S
OSAGE BEACH    CLOUDY    53  49  86 N6        30.00R
SPRINGFIELD    CLOUDY    52  51  97 N10       29.96S
BRANSON        CLOUDY    50  50 100 NW9       29.94S FOG
JOPLIN         CLOUDY    53  49  86 N9        30.00S
WEST PLAINS    LGT RAIN  55  52  89 N16G22    29.89S

$$

IAZ060-094-KSZ022-034>040-054-083-096-NEZ052-066-093-231100-
...KANSAS...SOUTHEAST NEBRASKA AND IOWA...

CITY           SKY/WX    TMP DP  RH WIND       PRES   REMARKS
TOPEKA         CLEAR     51  37  58 N8        30.10R
EMPORIA        CLOUDY    51  41  68 N5        30.08S
CHANUTE        CLOUDY    53  43  68 N8        30.05S
WICHITA        PTCLDY    50  45  83 N7        30.09S
OMAHA          CLEAR     37  28  70 N7        30.17S WCI  32
LINCOLN        CLEAR     38  30  73 N5        30.18S WCI  34
FALLS CITY     PTCLDY    49  30  48 N5        30.13S
LAMONI         CLOUDY    51  31  46 NE7       30.14S
DES MOINES     CLOUDY    51  29  42 NE6       30.18R

$$




USA.gov is the U.S. government's official web portal to all federal, state and local government web resources and services.